Date,TemperatureHighF,TemperatureAvgF,TemperatureLowF,DewpointHighF,DewpointAvgF,DewpointLowF,HumidityHigh,HumidityAvg,HumidityLow,PressureMaxIn,PressureMinIn,WindSpeedMaxMPH,WindSpeedAvgMPH,GustSpeedMaxMPH,PrecipitationSumIn
2013-1-1,23.8,16.0,3.1,4.1,-1.2,-4.4,89,47,34,30.38,30.24,23,4,23,0.00
2013-1-2,22.5,16.1,11.3,0.6,-1.9,-5.3,57,44,32,30.49,30.31,18,3,18,0.00
2013-1-3,37.5,17.7,0.1,2.8,-4.5,-15.1,67,42,9,30.56,30.42,6,1,0,0.00
2013-1-4,47.1,23.8,9.8,13.5,7.5,0.5,75,52,23,30.45,30.18,9,1,0,0.00
2013-1-5,38.9,25.6,9.8,10.6,0.5,-9.0,63,36,17,30.42,30.18,21,3,21,0.00
2013-1-6,48.4,33.2,12.4,2.0,-5.1,-16.8,42,21,6,30.40,29.98,20,3,20,0.00
2013-1-7,47.3,38.4,31.6,3.5,-3.6,-11.1,25,16,9,29.99,29.73,27,6,27,0.00
2013-1-8,36.0,32.5,29.4,17.8,13.7,-2.4,53,46,21,30.24,29.71,31,9,31,0.00
2013-1-9,51.5,40.6,31.8,13.9,9.4,2.7,45,28,16,30.30,29.92,23,2,23,0.00
2013-1-10,45.9,33.2,24.2,11.0,5.2,-3.3,53,33,13,29.92,29.43,21,2,21,0.00
2013-1-11,33.5,20.9,10.3,20.9,6.0,-7.8,85,53,34,29.72,29.25,31,7,31,0.00
2013-1-12,0.5,-1.5,-4.4,-3.3,-5.2,-7.8,84,81,79,30.24,30.17,5,0,0,0.00
2013-1-13,7.5,-0.6,-7.4,-1.3,-5.6,-10.6,84,77,61,30.48,30.24,14,1,14,0.00
2013-1-14,12.8,0.7,-11.9,-2.3,-10.3,-14.5,83,59,32,30.58,30.43,22,2,22,0.00
2013-1-15,31.7,21.2,4.8,17.5,3.3,-15.0,56,45,32,30.47,30.30,22,4,22,0.00
2013-1-16,45.2,32.2,19.0,17.9,14.9,11.5,76,50,32,30.38,30.21,27,4,27,0.00
2013-1-17,19.3,15.8,12.1,13.6,11.0,7.5,85,81,75,30.50,30.38,6,0,0,0.00
2013-1-20,32.8,31.1,24.0,9.7,5.9,3.5,50,34,29,30.14,30.11,16,4,16,0.00
2013-1-21,42.3,35.7,29.3,11.1,4.9,-5.1,37,27,15,30.15,30.06,28,7,28,0.00
2013-1-22,47.7,42.1,36.6,-2.7,-8.3,-15.6,17,11,7,30.13,30.00,37,11,37,0.00
2013-1-23,54.6,46.7,42.6,4.0,-5.0,-20.2,16,11,5,30.10,29.98,32,10,32,0.00
2013-1-24,49.2,43.2,39.1,27.1,11.1,-3.9,60,31,13,30.00,29.83,33,8,33,0.00
2013-1-25,46.4,41.1,38.3,26.8,24.9,21.3,59,52,42,30.04,29.93,31,9,31,0.00
2013-1-26,49.1,40.4,31.4,30.8,24.6,20.0,93,55,33,29.93,29.60,37,4,37,0.00
2013-1-27,44.4,37.5,27.4,30.4,23.2,15.0,96,59,36,29.71,29.57,26,4,26,0.00
2013-1-28,43.3,32.4,19.1,29.4,17.7,10.7,87,56,35,29.66,29.46,26,3,26,0.00
2013-1-29,23.3,17.3,11.4,15.7,0.5,-4.5,87,48,33,29.92,29.60,22,4,22,0.04
2013-1-30,27.7,22.9,12.9,15.5,8.6,-4.0,67,54,38,30.06,29.97,35,12,35,0.00
2013-1-31,32.7,28.9,25.1,17.1,13.4,9.8,69,52,39,30.18,29.97,38,12,38,0.00
2013-2-1,33.4,30.3,28.2,19.4,13.8,9.9,59,50,39,30.18,30.05,53,10,53,0.00
2013-2-2,45.2,35.3,28.4,12.0,7.7,3.3,49,32,19,30.32,30.17,37,7,37,0.00
2013-2-3,46.4,38.1,31.2,6.8,-2.8,-16.7,31,18,6,30.21,29.83,24,5,24,0.00
2013-2-4,41.5,33.9,28.8,12.7,5.9,0.1,41,31,21,29.96,29.80,44,10,44,0.00
2013-2-5,49.0,39.6,32.5,20.2,16.2,10.6,44,38,31,30.01,29.77,27,7,27,0.00
2013-2-6,41.4,36.7,24.8,29.7,19.6,11.9,84,51,40,29.99,29.70,18,4,18,0.00
2013-2-7,41.7,25.2,14.6,16.1,3.9,-10.0,88,44,10,30.17,29.99,14,1,14,0.00
2013-2-8,42.7,27.1,15.6,5.5,-0.6,-9.1,47,31,14,30.10,29.77,15,1,15,0.00
2013-2-9,31.0,23.0,13.8,25.2,12.5,0.6,89,65,42,29.77,29.53,0,0,0,0.00
2013-2-10,28.5,20.7,11.8,15.3,7.6,2.0,82,58,36,30.10,29.64,0,0,0,0.00
2013-2-11,22.9,15.0,5.0,14.1,8.7,0.4,89,77,49,30.23,30.09,17,0,17,0.01
2013-2-12,38.6,24.0,15.1,8.9,1.6,-9.2,55,38,23,30.25,30.10,24,5,25,0.01
2013-2-13,33.6,27.2,21.8,13.4,9.3,5.6,54,46,38,30.12,30.00,34,10,34,0.00
2013-2-14,40.6,22.2,11.1,18.8,10.9,7.0,85,63,31,30.31,30.02,23,4,23,0.00
2013-2-15,30.7,22.6,8.7,11.1,6.1,0.5,87,52,29,30.46,30.31,27,5,27,0.00
2013-2-16,43.5,34.0,26.1,13.6,8.8,2.2,51,35,22,30.35,29.94,42,9,42,0.00
2013-2-17,46.8,35.9,23.5,16.4,3.4,-3.9,60,27,13,29.97,29.51,36,8,36,0.00
2013-2-18,30.7,23.8,14.3,7.9,1.4,-5.0,59,38,26,30.12,29.63,25,5,25,0.00
2013-2-19,42.4,26.5,8.2,7.6,-7.9,-23.1,65,27,6,30.13,29.82,20,2,20,0.00
2013-2-20,29.6,17.6,15.0,8.6,4.9,3.3,63,57,41,29.83,29.74,3,0,0,0.00
2013-2-21,24.1,18.6,11.2,18.0,14.1,8.4,90,82,72,30.01,29.81,13,2,13,0.00
2013-2-22,29.5,21.6,11.3,17.2,6.9,-0.3,90,53,38,30.03,29.94,34,6,34,0.01
2013-2-23,35.4,25.2,17.7,19.2,9.6,-0.4,90,52,40,29.95,29.70,36,7,36,0.00
2013-2-24,22.2,17.8,5.3,19.4,13.3,1.4,91,83,65,30.23,29.75,11,1,0,0.00
2013-2-25,37.3,22.5,0.4,15.3,4.8,-2.9,88,51,21,30.29,29.90,19,4,19,0.03
2013-2-26,30.0,23.4,17.8,18.6,9.8,2.5,84,56,39,30.20,29.78,23,3,23,0.00
2013-2-27,27.0,20.6,15.1,6.8,-1.2,-7.6,52,38,26,30.37,30.21,20,5,20,0.00
2013-2-28,33.7,25.0,17.9,9.5,3.9,-2.4,51,40,29,30.38,30.27,27,6,27,0.00
2013-3-1,41.7,34.2,25.2,20.9,13.4,-0.2,55,42,29,30.36,30.27,43,7,43,0.00
2013-3-2,46.1,40.3,33.5,23.7,21.4,17.5,61,47,36,30.31,29.96,24,7,24,0.00
2013-3-3,51.4,41.5,31.6,29.1,21.4,16.1,90,47,27,29.97,29.50,39,7,39,0.00
2013-3-4,40.0,26.0,16.9,29.3,13.6,-2.2,93,61,40,30.22,29.56,24,4,24,0.02
2013-3-5,45.8,33.8,16.6,1.5,-4.5,-11.8,50,21,10,30.35,30.10,22,4,22,0.00
2013-3-6,54.2,44.7,38.3,13.1,7.7,-10.1,31,22,11,30.10,29.65,29,5,29,0.00
2013-3-7,55.6,43.7,27.3,20.0,13.5,5.2,63,32,14,29.82,29.65,43,5,43,0.00
2013-3-8,50.6,33.9,25.2,26.4,18.4,12.2,92,56,24,29.83,29.63,16,2,16,0.00
2013-3-9,30.3,26.2,17.8,28.2,20.2,5.1,94,79,48,30.14,29.56,20,2,20,0.02
2013-3-10,42.4,30.5,16.3,18.1,10.3,1.5,68,43,28,30.22,30.09,24,4,24,0.04
2013-3-11,39.9,31.8,24.4,24.8,17.5,11.8,92,57,36,30.09,29.86,39,9,39,0.00
2013-3-12,43.4,31.4,21.2,26.8,21.2,17.6,94,69,39,30.27,30.06,25,4,25,0.08
2013-3-13,53.4,43.4,37.2,23.1,20.6,15.7,50,41,24,30.25,30.12,32,10,32,0.00
2013-3-14,56.7,48.8,42.4,21.4,17.5,10.0,39,29,19,30.17,29.96,30,8,30,0.00
2013-3-15,61.9,52.5,45.6,25.1,19.5,16.0,41,27,20,29.97,29.64,37,10,37,0.00
2013-3-16,50.7,40.8,31.5,31.1,24.0,15.7,76,52,32,29.74,29.61,30,4,30,0.00
2013-3-17,41.6,37.5,34.3,28.9,21.5,14.9,77,53,38,29.69,29.42,22,5,22,0.00
2013-3-18,32.6,28.1,19.0,22.3,9.2,-1.3,75,45,32,30.02,29.83,32,8,32,0.00
2013-3-19,38.7,29.5,24.3,7.6,-2.5,-13.8,39,25,9,30.15,29.98,35,11,35,0.00
2013-3-20,49.4,41.7,36.8,24.4,17.3,-1.2,60,40,18,30.12,29.72,32,8,32,0.00
2013-3-21,45.7,35.3,25.8,28.6,15.9,-2.0,83,46,24,29.73,29.43,31,6,31,0.00
2013-3-22,37.1,25.3,16.7,20.4,9.5,0.3,90,56,22,29.93,29.68,23,4,23,0.00
2013-3-23,17.2,12.3,2.3,13.9,8.3,-1.0,90,84,74,30.38,29.90,11,2,0,0.00
2013-3-24,25.6,11.4,-3.1,10.6,1.5,-6.0,89,66,39,30.45,30.33,23,2,23,0.15
2013-3-25,31.6,17.1,2.1,11.4,3.4,-4.2,85,58,27,30.46,30.38,18,2,18,0.05
2013-3-26,44.9,32.9,8.1,26.8,16.1,2.8,81,51,37,30.39,29.98,25,5,25,0.04
2013-3-27,47.4,36.3,27.2,28.0,24.4,19.8,91,65,39,30.02,29.93,22,4,23,0.00
2013-3-28,49.6,40.4,33.4,29.5,26.8,21.3,77,59,33,30.12,30.04,18,2,18,0.00
2013-3-29,52.4,42.2,28.1,34.6,27.4,23.0,85,57,39,30.09,29.96,27,6,27,0.00
2013-3-30,56.0,43.9,30.5,36.4,25.7,18.5,85,52,24,30.03,29.88,21,4,21,0.02
2013-3-31,58.4,43.9,25.3,25.9,16.7,-1.9,93,41,9,30.05,29.90,23,4,23,0.00
2013-4-1,44.4,34.0,23.1,32.2,25.5,18.4,95,72,47,30.05,29.89,20,3,20,0.01
2013-4-2,36.4,32.4,29.8,34.1,31.1,28.5,96,95,89,30.12,29.99,13,1,13,0.13
2013-4-3,52.5,37.7,20.9,36.6,26.4,15.2,96,69,24,30.17,30.07,18,1,18,0.21
2013-4-4,56.7,47.5,38.0,28.0,24.1,17.9,62,41,25,30.11,29.86,20,4,20,0.00
2013-4-5,59.1,48.4,38.4,34.2,23.3,18.5,82,39,25,29.86,29.50,34,6,34,0.03
2013-4-6,56.4,45.1,36.2,31.6,22.4,16.4,70,41,24,29.79,29.65,22,4,22,0.00
2013-4-7,48.4,40.3,35.3,34.0,27.1,21.1,89,60,37,29.72,29.58,27,5,27,0.05
2013-4-8,53.0,38.9,26.6,32.2,25.9,20.3,94,63,30,29.63,29.35,22,3,22,0.01
2013-4-9,26.6,15.2,6.5,24.2,10.2,2.2,92,80,66,30.28,29.57,12,2,12,0.00
2013-4-10,6.6,1.9,-0.5,2.6,-1.1,-3.5,88,86,83,30.31,30.25,6,0,0,0.00
2013-4-14,32.2,28.9,27.2,23.2,21.2,15.7,84,73,50,29.77,29.74,9,1,0,0.04
2013-4-15,28.7,22.0,16.0,23.1,18.7,13.4,92,87,54,30.09,29.71,19,1,20,0.00
2013-4-16,27.0,22.1,16.9,23.9,19.0,14.2,93,88,75,30.10,29.95,9,1,0,0.00
2013-4-17,22.1,18.6,9.5,19.6,16.0,6.1,94,89,83,30.26,29.99,15,2,15,0.00
2013-4-18,26.2,16.0,-0.8,15.7,8.7,-3.8,88,73,50,30.43,30.23,29,6,29,0.04
2013-4-19,38.7,27.7,22.4,22.0,15.5,7.6,73,60,46,30.39,30.10,31,10,31,0.08
2013-4-20,42.0,37.1,34.1,29.5,26.9,23.8,79,67,56,29.95,29.85,8,1,0,0.00
2013-4-21,46.7,38.9,32.5,29.7,22.2,18.5,89,52,36,30.03,29.92,24,4,24,0.00
2013-4-22,46.2,31.7,14.4,32.1,24.7,12.0,92,77,46,30.23,29.81,14,1,14,0.05
2013-4-23,29.9,21.0,11.6,21.0,14.7,8.7,90,77,59,30.35,30.18,14,2,14,0.69
2013-4-24,41.6,31.8,22.8,14.1,10.8,6.5,60,43,26,30.32,30.21,20,4,20,0.01
2013-4-25,58.0,44.0,25.5,25.0,14.7,5.1,70,33,18,30.21,29.84,19,3,19,0.00
2013-4-26,55.4,42.8,27.5,25.6,19.8,12.0,72,44,20,30.18,29.92,22,2,22,0.00
2013-4-27,64.3,47.2,32.3,24.5,18.7,13.0,66,36,16,30.17,29.90,19,4,19,0.00
2013-4-28,65.3,55.0,47.9,35.5,22.0,15.2,62,28,18,29.90,29.63,24,5,24,0.00
2013-4-29,67.1,55.7,44.8,35.8,24.8,16.9,67,33,16,29.69,29.37,29,6,29,0.00
2013-5-1,19.3,16.2,12.2,17.1,14.1,9.8,93,91,90,30.70,30.53,8,1,0,0.00
2013-5-2,38.2,24.6,6.1,26.1,16.3,3.3,93,72,44,30.90,30.55,23,3,23,1.23
2013-5-3,51.7,41.0,30.1,28.6,19.7,11.3,74,44,22,30.56,30.03,16,3,16,0.01
2013-5-4,45.6,37.7,27.2,29.4,25.8,21.7,87,63,43,30.18,30.00,18,2,18,0.00
2013-5-5,47.2,36.6,25.9,35.0,26.5,20.6,92,68,42,30.18,30.05,13,1,13,0.04
2013-5-6,54.5,44.1,31.5,36.6,32.3,28.3,94,66,40,30.05,29.82,16,2,16,0.00
2013-5-7,59.4,47.6,35.3,37.9,31.4,27.0,83,55,31,29.84,29.73,19,4,19,0.00
2013-5-8,43.6,36.6,32.7,37.6,32.8,29.5,96,86,69,30.04,29.77,16,1,16,0.60
2013-5-9,48.4,37.8,32.7,42.1,34.9,31.3,97,90,66,30.18,30.04,14,1,14,1.94
2013-5-10,56.9,44.6,31.1,40.8,32.4,20.3,97,66,28,30.24,30.14,24,2,24,0.00
2013-5-11,60.9,45.7,32.4,39.3,33.2,24.6,90,64,26,30.27,30.11,26,2,26,0.01
2013-5-12,68.3,56.8,39.9,35.3,30.1,25.5,75,38,22,30.18,29.91,16,3,16,0.00
2013-5-13,74.2,63.6,50.1,37.8,32.9,28.6,56,33,20,29.92,29.73,19,4,19,0.00
2013-5-14,73.2,62.4,48.4,38.5,34.1,29.8,59,36,22,29.73,29.60,25,5,25,0.00
2013-5-15,66.0,55.5,45.1,42.8,36.8,30.9,83,51,30,29.72,29.60,17,2,17,0.00
2013-5-16,67.8,51.7,44.3,40.3,35.7,31.5,85,56,28,29.69,29.62,19,4,19,0.00
2013-5-18,59.8,49.8,45.9,41.1,35.0,28.4,81,57,35,29.63,29.54,24,6,24,0.01
2013-5-19,61.3,50.8,43.3,31.8,29.0,24.5,59,44,27,29.64,29.56,22,7,22,0.00
2013-5-20,58.4,49.1,41.3,37.6,30.4,23.8,79,50,33,29.83,29.61,18,4,18,0.00
2013-5-21,61.3,49.5,39.8,30.7,25.0,17.7,61,39,26,29.85,29.72,22,4,22,0.00
2013-5-22,71.7,51.8,35.7,44.9,33.9,23.0,91,56,16,29.81,29.68,20,3,20,0.08
2013-5-23,57.0,49.5,43.2,47.6,44.6,41.7,96,84,68,29.82,29.76,18,3,18,0.02
2013-5-24,76.2,59.3,39.6,44.8,33.4,19.0,93,47,12,29.85,29.68,18,2,18,0.00
2013-5-25,78.5,61.1,39.9,39.0,27.6,8.9,83,40,8,29.72,29.63,19,2,19,0.00
2013-5-26,65.9,57.7,50.1,32.9,30.7,26.3,49,37,24,29.63,29.57,12,2,12,0.00
2013-5-27,69.3,60.0,46.1,30.4,21.3,11.1,48,24,15,29.60,29.46,26,3,26,0.00
2013-5-28,67.0,54.4,37.1,40.5,28.9,19.6,66,40,18,29.55,29.37,25,3,25,0.00
2013-5-29,55.6,46.5,40.1,40.5,33.2,27.0,91,61,39,29.56,29.33,30,5,30,0.20
2013-5-30,53.7,46.0,40.5,30.9,25.3,18.4,68,45,26,29.73,29.50,41,10,41,0.00
2013-5-31,55.9,48.6,40.3,21.3,17.4,11.9,43,29,20,29.87,29.68,36,9,36,0.00
2013-6-1,57.4,49.6,40.7,36.5,30.2,17.5,64,48,29,30.05,29.86,22,4,22,0.00
2013-6-2,74.0,54.1,31.3,37.5,31.2,20.7,87,48,17,30.03,29.65,22,3,22,0.00
2013-6-3,76.1,61.3,45.0,38.8,26.9,14.7,55,29,14,29.65,29.49,42,4,42,0.00
2013-6-4,61.9,51.7,43.1,43.5,31.1,14.0,64,47,19,29.70,29.64,22,3,22,0.00
2013-6-11,79.7,72.3,66.6,24.2,21.1,15.4,19,15,10,29.58,29.47,35,11,35,0.00
2013-6-12,80.3,69.1,49.8,34.2,27.4,17.8,44,22,12,29.74,29.57,34,4,34,0.00
2013-6-13,86.8,75.6,62.3,44.2,35.5,24.4,51,27,11,29.69,29.55,28,5,28,0.00
2013-6-14,83.5,67.5,51.2,44.2,33.9,9.0,63,35,7,29.61,29.50,25,4,25,0.00
2013-6-15,71.0,60.6,44.8,46.9,44.4,40.5,86,57,39,29.78,29.59,31,2,31,0.00
2013-6-16,81.5,62.0,49.5,46.5,37.8,22.9,83,46,12,29.89,29.74,40,4,40,0.00
2013-6-17,70.7,58.5,43.4,48.6,39.2,30.2,83,50,27,29.90,29.77,34,3,34,0.02
2013-6-18,73.7,59.7,43.9,49.2,41.9,30.7,89,57,23,29.87,29.63,22,2,22,0.00
2013-6-19,81.5,63.1,42.6,45.6,27.8,4.9,90,41,7,29.70,29.43,22,3,22,0.00
2013-6-20,77.0,62.7,48.9,34.0,24.1,13.1,41,24,12,29.62,29.48,27,3,27,0.00
2013-6-21,81.7,65.6,44.5,42.6,25.8,12.7,65,28,9,29.63,29.52,21,3,21,0.00
2013-6-22,76.3,62.1,44.5,43.9,32.8,20.6,75,38,13,29.61,29.47,22,3,22,0.00
2013-6-23,71.3,59.9,42.6,46.2,36.6,22.2,59,42,29,29.69,29.55,23,4,23,0.00
2013-6-24,77.8,63.9,43.2,42.6,27.8,12.4,77,33,10,29.64,29.50,34,5,34,0.00
2013-6-25,75.1,66.5,55.4,38.9,31.9,23.7,43,28,22,29.70,29.50,30,6,30,0.00
2013-6-26,85.3,65.5,46.6,41.4,34.9,32.1,59,36,16,29.81,29.70,18,2,18,0.00
2013-6-27,93.0,75.6,56.2,42.3,33.7,19.3,44,25,7,29.83,29.74,23,3,23,0.00
2013-6-28,89.9,70.9,54.5,56.8,45.4,29.1,73,43,12,29.85,29.71,24,3,24,0.01
2013-6-29,78.5,64.1,51.5,59.3,49.2,42.1,82,61,30,29.87,29.78,18,1,18,0.06
2013-6-30,72.7,60.4,54.0,56.9,52.3,47.4,95,76,46,29.93,29.79,15,1,15,0.38
2013-7-1,71.7,59.4,46.0,59.0,49.5,43.1,96,72,38,30.03,29.92,18,2,18,0.35
2013-7-2,72.8,59.2,44.6,53.1,46.7,37.8,97,67,34,29.99,29.86,22,2,22,0.01
2013-7-3,78.2,61.7,44.4,54.2,45.4,36.8,91,61,24,29.88,29.64,18,2,18,0.19
2013-7-4,80.5,66.6,57.6,49.7,43.8,39.1,68,45,23,29.71,29.58,19,2,19,0.00
2013-7-5,84.0,65.9,54.6,53.3,48.7,45.0,79,56,28,29.60,29.48,22,2,22,0.00
2013-7-6,80.8,67.0,53.8,52.4,49.2,44.8,89,56,29,29.65,29.53,27,3,27,0.04
2013-7-7,84.4,67.7,50.4,54.7,49.3,42.4,95,57,25,29.73,29.62,24,4,24,0.09
2013-7-8,86.0,71.7,59.3,49.0,43.5,36.8,61,38,22,29.76,29.65,32,6,32,0.00
2013-7-9,85.3,70.5,58.5,46.8,38.9,28.8,53,34,16,29.83,29.73,21,3,21,0.00
2013-7-10,79.3,66.3,49.5,53.6,45.5,40.1,74,49,30,29.84,29.70,19,2,19,0.00
2013-7-11,84.8,69.8,52.5,52.3,45.5,37.8,80,47,21,29.79,29.50,20,2,20,0.00
2013-7-12,78.8,68.1,59.7,58.1,49.1,43.4,87,52,34,29.68,29.49,28,4,28,0.05
2013-7-13,79.2,63.8,53.2,58.0,51.9,46.9,95,68,34,29.85,29.68,18,3,25,0.32
2013-7-14,70.0,59.1,49.1,57.5,53.6,47.6,97,83,55,29.95,29.81,14,1,14,0.09
2013-7-15,71.5,60.4,54.2,58.8,55.2,52.1,97,84,61,29.94,29.79,20,2,20,0.01
2013-7-17,78.0,69.2,59.6,51.9,49.6,47.6,70,51,38,29.83,29.80,10,1,0,0.00
2013-7-18,79.5,62.9,55.5,56.4,51.2,44.1,95,70,31,29.87,29.73,14,1,14,0.28
2013-7-19,72.8,63.1,51.9,57.7,54.3,48.8,97,75,45,29.92,29.75,14,2,14,0.00
2013-7-20,83.2,63.7,49.0,55.6,48.9,38.6,87,62,22,29.77,29.64,19,2,19,0.00
2013-7-21,88.3,67.5,48.3,49.1,38.6,19.3,92,49,9,29.68,29.59,17,3,17,0.00
2013-8-20,81.6,72.0,62.5,40.6,38.1,30.9,43,30,17,29.72,29.62,1,0,0,0.00
2013-8-21,76.7,68.2,58.1,56.6,44.6,38.8,66,43,28,29.79,29.67,0,0,0,0.03
2013-8-22,73.0,59.4,50.5,56.9,50.6,44.8,93,74,49,29.95,29.78,0,0,0,0.15
2013-8-23,78.5,65.0,53.6,52.7,48.2,43.3,91,57,30,29.95,29.68,0,0,0,0.05
2013-8-24,74.8,62.3,49.0,50.6,46.1,38.5,86,59,30,29.87,29.69,0,0,0,0.08
2013-8-25,76.0,61.3,47.8,55.7,49.4,44.6,90,68,35,29.89,29.83,0,0,0,0.03
2013-8-26,80.0,66.2,51.9,55.5,50.6,46.2,90,60,34,29.89,29.79,0,0,0,0.03
2013-8-27,77.3,63.4,52.2,56.1,51.4,47.8,91,67,37,29.85,29.78,0,0,0,0.17
2013-8-28,79.8,64.3,50.2,56.1,48.4,40.6,94,61,34,29.89,29.80,0,0,0,0.00
2013-8-29,81.8,64.5,52.8,53.3,46.9,42.1,91,56,27,29.94,29.84,0,0,0,0.41
2013-8-30,77.5,63.1,50.6,55.2,49.7,44.8,90,65,32,29.93,29.83,0,0,0,0.17
2013-8-31,67.7,64.9,60.9,48.1,45.2,43.2,56,49,43,29.84,29.76,0,0,0,0.00
2013-9-11,53.7,53.5,53.0,52.7,52.4,51.6,97,96,95,30.02,30.01,11,3,0,2.44
2013-9-12,57.2,53.1,50.5,55.3,52.1,49.5,98,96,91,30.09,29.99,13,1,13,6.48
2013-9-13,66.8,55.3,49.3,56.1,51.8,47.6,99,89,51,29.99,29.68,13,1,13,0.33
2013-9-14,66.5,53.8,44.6,50.7,46.5,43.3,98,79,44,29.75,29.69,0,0,0,0.04
2013-9-15,52.2,49.7,48.5,51.0,48.5,47.6,97,96,90,30.08,29.91,10,1,0,0.61
2013-9-16,68.3,53.4,45.0,52.9,47.2,43.2,98,82,44,30.07,29.86,22,2,22,0.00
2013-9-17,72.0,61.4,50.7,45.5,42.1,26.9,76,51,22,29.90,29.68,20,6,20,0.00
2013-9-18,63.5,58.4,54.9,43.2,40.9,38.4,58,52,44,29.67,29.54,25,6,26,0.02
2013-9-19,55.9,48.6,39.8,44.5,41.2,38.1,95,77,55,30.03,29.64,17,2,17,0.81
2013-9-20,63.3,47.8,33.1,45.7,39.5,32.3,97,76,45,30.10,29.94,14,2,14,0.01
2013-9-21,71.5,59.6,41.1,43.6,35.8,29.2,92,45,23,29.95,29.58,21,3,21,0.00
2013-9-22,63.2,51.3,45.0,46.7,41.1,35.4,95,70,45,29.58,29.42,23,2,23,0.22
2013-9-23,52.4,47.4,43.3,41.1,33.0,28.6,90,58,43,29.96,29.36,34,8,34,0.10
2013-9-24,66.2,54.9,46.3,30.5,25.0,11.4,53,34,14,30.01,29.67,23,4,23,0.00
2013-9-25,72.6,62.2,51.1,31.4,23.0,12.4,43,23,14,29.67,29.21,22,3,22,0.00
2013-9-26,60.6,49.7,40.4,43.5,37.6,27.5,93,64,43,29.58,29.26,15,2,15,0.00
2013-9-27,45.2,41.1,33.8,42.8,35.8,20.0,95,82,55,29.92,29.55,30,3,30,0.13
2013-9-28,56.9,45.6,34.5,30.9,24.6,17.9,61,44,31,30.10,29.89,33,7,33,0.00
2013-9-29,62.6,53.6,46.1,27.5,21.0,16.5,45,28,22,30.05,29.72,31,9,32,0.00
2013-9-30,70.7,59.7,53.9,33.0,25.6,20.0,31,27,21,29.77,29.56,33,7,33,0.00
2013-10-1,65.7,54.8,42.7,43.7,35.0,24.9,88,50,30,29.78,29.66,18,3,18,0.00
2013-10-2,67.0,52.4,37.9,39.9,33.3,23.8,86,53,20,29.84,29.70,21,2,21,0.00
2013-10-3,61.5,47.7,36.5,40.8,34.9,25.3,95,66,26,29.70,29.51,19,3,19,0.31
2013-10-4,39.8,32.7,27.3,38.5,22.9,10.9,96,69,47,30.16,29.56,25,4,25,0.25
2013-10-5,47.2,38.3,28.4,15.6,10.7,0.5,54,34,18,30.30,30.14,30,9,30,0.00
2013-10-6,64.3,51.7,40.5,30.7,24.4,3.1,48,35,20,30.22,30.03,24,4,24,0.00
2013-10-7,72.1,58.7,48.0,22.8,16.3,6.6,31,20,8,30.03,29.67,17,4,17,0.00
2013-10-8,70.0,57.4,44.9,31.7,21.8,13.8,57,27,14,29.68,29.47,24,4,24,0.00
2013-10-9,58.7,48.9,39.7,38.6,32.6,24.9,85,55,32,29.77,29.56,17,3,17,0.00
2013-10-10,50.1,41.9,35.6,42.0,34.6,25.2,93,76,51,29.75,29.42,26,3,26,0.03
2013-10-11,45.7,41.0,38.3,29.1,27.0,23.6,69,57,45,29.97,29.40,38,8,38,0.00
2013-10-12,49.9,35.4,27.7,33.2,28.2,21.9,95,78,35,30.12,29.97,14,0,14,0.00
2013-10-13,57.5,46.1,39.1,38.6,35.7,27.2,89,69,33,29.98,29.81,4,0,0,0.00
2013-10-14,46.2,39.9,32.0,34.8,29.0,23.1,89,66,47,30.05,29.66,0,0,0,0.03
2013-10-15,33.4,29.5,27.5,29.2,26.1,23.8,93,87,73,30.25,30.04,0,0,0,0.00
2013-10-16,46.3,35.6,23.4,24.3,19.9,10.9,93,56,32,30.22,30.04,0,0,0,0.01
2013-10-17,44.6,36.3,30.0,29.7,21.9,16.3,94,58,33,30.06,29.90,0,0,0,0.00
2013-10-18,36.4,30.8,20.9,29.2,18.3,12.5,94,63,41,30.19,29.96,0,0,0,0.13
2013-10-19,50.4,41.3,33.3,22.0,18.2,15.5,49,39,29,30.18,29.88,0,0,0,0.00
2013-10-20,42.9,36.5,24.9,31.8,24.5,19.2,93,65,39,30.07,29.82,0,0,0,0.00
2013-10-21,47.3,36.6,22.5,26.2,23.1,19.3,93,61,40,30.27,30.07,18,1,18,0.06
2013-10-22,57.4,48.6,42.1,29.3,25.2,21.6,48,40,31,30.18,29.99,23,5,23,0.00
2013-10-23,59.2,47.5,31.4,32.9,26.3,20.8,86,46,24,30.08,29.94,17,2,17,0.00
2013-10-24,57.6,39.7,25.6,32.8,26.3,22.1,93,64,26,30.22,30.08,15,2,15,0.00
2013-10-25,62.9,43.8,29.3,28.9,24.6,20.5,80,52,21,30.21,30.05,15,2,15,0.00
2013-10-26,55.2,40.4,26.4,33.7,27.1,19.0,84,61,32,30.28,30.14,14,1,14,0.00
2013-10-27,55.9,48.0,36.6,25.3,21.7,16.8,61,36,28,30.14,29.73,21,4,21,0.00
2013-10-28,38.6,31.5,25.9,29.6,26.1,21.7,94,81,56,30.01,29.75,12,2,12,0.00
2013-10-29,51.6,33.7,23.3,33.7,26.9,21.8,94,80,33,30.04,29.84,19,2,19,0.02
2013-10-30,41.7,34.7,31.2,32.1,23.4,16.2,95,64,47,29.86,29.73,33,6,33,0.14
2013-10-31,37.1,33.1,30.2,25.7,18.4,13.3,69,55,45,29.95,29.81,40,10,40,0.00
2013-11-1,42.2,37.0,33.7,27.8,21.4,16.3,78,54,39,30.19,29.92,19,4,20,0.00
2013-11-2,54.8,46.6,35.9,18.5,7.8,-8.7,47,24,7,30.18,29.61,40,6,40,0.00
2013-11-3,52.2,45.4,28.2,25.8,14.5,-6.6,78,32,9,29.62,29.39,30,5,30,0.00
2013-11-4,34.4,29.8,23.9,20.8,14.8,7.9,62,53,43,29.87,29.59,32,6,32,0.00
2013-11-8,53.6,47.6,41.8,20.1,18.3,16.4,38,31,24,29.94,29.63,54,9,56,0.00
2013-11-9,55.1,43.5,30.2,24.9,20.1,17.3,76,41,27,30.12,29.91,21,4,21,0.00
2013-11-10,56.2,47.2,36.5,20.7,18.4,15.2,50,32,21,30.16,30.07,17,4,18,0.00
2013-11-20,45.9,39.6,33.8,27.6,23.3,19.0,72,52,35,29.89,29.75,22,4,22,0.00
2013-11-21,33.6,14.7,6.2,27.0,10.7,2.6,88,84,74,30.75,29.88,13,3,13,0.00
2013-11-22,32.4,20.1,10.1,27.6,16.5,7.1,91,86,75,30.89,30.74,7,0,0,0.09
2013-11-23,29.8,21.3,13.6,22.5,17.4,11.2,94,85,71,30.77,30.45,5,0,0,0.00
2013-11-24,44.9,29.8,15.7,33.7,23.3,9.5,95,79,38,30.45,30.05,0,0,0,0.09
2013-11-25,35.9,30.5,21.6,22.9,19.5,15.6,80,64,46,30.34,30.09,0,0,0,0.00
2013-11-26,44.3,33.0,20.6,20.2,15.9,11.7,82,51,31,30.46,30.27,0,0,0,0.04
2013-11-27,50.5,40.2,27.8,20.8,17.3,13.4,69,40,27,30.27,30.03,18,4,18,0.00
2013-11-28,48.3,31.5,20.3,24.5,20.2,15.9,84,65,35,30.22,30.08,10,0,0,0.00
2013-11-29,45.4,40.0,33.6,20.6,17.8,14.7,53,41,34,30.20,30.09,29,7,29,0.00
2013-11-30,43.7,37.9,35.0,18.0,15.5,10.9,48,40,30,30.17,30.09,26,6,26,0.00
2013-12-1,40.4,35.6,31.7,28.0,19.6,14.4,74,52,41,30.13,29.81,44,11,44,0.00
2013-12-2,39.1,36.4,33.7,28.6,23.8,20.6,75,60,50,29.86,29.57,38,13,38,0.00
2013-12-3,36.9,27.1,4.6,29.4,17.9,0.6,86,70,50,29.62,29.36,20,3,20,0.00
2013-12-4,6.2,1.6,-4.7,1.4,-2.5,-7.9,87,81,62,30.33,29.61,13,0,13,0.00
2013-12-5,16.2,1.0,-12.0,5.5,-5.9,-15.1,85,70,46,30.41,30.21,22,2,22,0.21
2013-12-6,11.7,-1.0,-12.3,1.8,-7.2,-14.8,86,73,50,30.58,30.40,19,1,19,0.00
2013-12-7,22.0,8.9,-4.6,14.0,2.5,-7.8,89,74,54,30.54,29.93,21,1,21,0.00
2013-12-8,18.6,12.1,6.7,8.8,-0.2,-8.2,80,57,40,30.15,29.87,24,4,24,0.00
2013-12-9,13.4,8.2,3.2,0.2,-5.8,-9.8,59,50,40,30.50,30.15,35,10,35,0.00
2013-12-10,25.1,20.7,12.9,10.6,5.9,-1.7,60,52,46,30.51,30.22,46,14,46,0.00
2013-12-11,35.5,28.4,21.3,8.3,3.4,-3.7,54,35,18,30.44,30.33,29,8,29,0.00
2013-12-12,48.9,40.9,34.8,6.3,1.9,-4.3,24,19,13,30.39,29.84,29,7,29,0.00
2013-12-13,42.7,34.2,25.6,14.6,10.9,4.5,52,38,25,30.10,29.74,25,6,25,0.00
2013-12-14,34.6,28.8,24.2,15.4,10.2,6.7,57,45,33,30.32,30.09,31,7,31,0.00
2013-12-15,41.6,35.3,28.1,18.2,15.6,12.4,55,44,37,30.31,30.12,43,11,43,0.00
2013-12-16,44.2,39.3,35.9,18.2,13.9,7.5,45,35,27,30.22,30.09,44,13,44,0.00
2013-12-17,49.9,43.0,37.8,14.4,11.8,8.7,34,28,22,30.28,30.00,25,5,25,0.00
2013-12-18,50.4,44.5,42.8,12.5,10.0,7.2,27,24,20,30.01,29.71,25,8,25,0.00
2013-12-22,26.0,24.2,18.5,15.9,10.2,7.0,72,55,46,30.27,30.09,37,6,37,0.00
2013-12-23,33.1,25.6,9.9,20.0,14.6,7.0,89,64,42,30.41,30.21,34,8,34,0.00
2013-12-24,33.4,28.1,21.1,26.5,14.2,2.8,88,56,41,30.33,30.08,31,7,31,0.00
2013-12-25,35.3,28.0,19.7,7.7,4.5,-0.3,52,37,26,30.50,30.32,20,6,24,0.00
2013-12-26,41.1,35.4,31.5,14.3,8.7,0.1,39,32,24,30.36,30.25,20,6,24,0.01
2013-12-27,50.7,40.3,30.9,21.5,18.0,12.9,59,41,30,30.27,29.99,15,2,15,0.00
2013-12-28,43.9,34.8,16.6,20.6,17.9,13.4,89,53,33,30.05,29.78,13,4,21,0.00
2013-12-29,30.6,21.2,6.2,19.8,8.8,0.9,93,63,32,30.28,30.05,23,4,33,0.09
2013-12-30,33.3,29.5,24.4,15.9,11.3,8.2,54,46,38,30.31,30.11,28,7,29,0.01
2013-12-31,38.7,34.2,31.2,22.7,19.5,15.2,66,55,48,30.14,29.89,26,9,39,0.00
2014-1-1,34.0,27.5,19.8,26.1,16.0,8.0,85,62,43,30.26,29.86,24,3,24,0.01
2014-1-2,42.7,34.1,24.7,15.2,9.3,2.0,52,36,24,30.33,30.00,33,7,33,0.00